Location: Shades State Park
(39.9310°N, 87.0690°W)
Time: 04:46:22
(UTC-04:00)

ISS - Visible Passes

Search period start: 20 August 2014 00:00
Search period end: 30 August 2014 00:00
Orbit: 413 x 419 km, 51.6° (Epoch: 20 August)

Date Brightness Start Highest point End Pass type
(mag) Time Alt. Az. Time Alt. Az. Time Alt. Az.
20 Aug -3.1 21:56:12 10° NW 21:59:31 60° NE 22:00:43 34° E visible
21 Aug -2.3 21:07:49 10° NW 21:10:57 37° NNE 21:14:05 10° E visible
21 Aug -1.4 22:44:47 10° WNW 22:47:01 24° WSW 22:47:01 24° WSW visible
22 Aug -2.5 21:55:58 10° WNW 21:59:11 45° SW 22:00:30 28° SSE visible
23 Aug -3.2 21:07:22 10° NW 21:10:42 84° SW 21:14:02 10° SE visible
24 Aug -0.7 21:56:30 10° W 21:58:34 16° SW 22:00:35 10° SSW visible
25 Aug -1.5 21:07:18 10° WNW 21:10:11 27° SW 21:13:03 10° SSE visible
